SWARM C

Last updated on Thu Jul 03 2025 00:03:31 GMT+0000 (Coordinated Universal Time)

1 39453U 13067C 25183.58943359 .00006360 00000+0 14522-3 0 9997 2 39453 87.3414 183.6344 0003218 91.0752 269.0873 15.42643273652173
UTC large
Height (km)
Speed (km/s)
/
Latitude / Longitude
Inclination (degrees)
Orbital Period (minutes)
Azimuth
Elevation
Range (km)
Doppler Factor

Next 0 passes for location: London (51.5072 / 0.1276)

Sorry there are no passes over London.